Regional Weather Roundup
Issued by NWS

Home | Current Version | Previous Version | Text Only | Print | Product List | Glossary Off
Versions: 1 2 3 4 5 6 7 8 9 10 11 12 13 14 15 16 17 18 19 20 21 22 23 24 25 26 27 28 29 30 31 32 33 34 35 36 37 38 39 40 41 42 43 44 45 46 47 48 49 50

000
ASUS43 KBIS 171359
RWRND

NORTH DAKOTA REGIONAL WEATHER ROUNDUP
NATIONAL WEATHER SERVICE BISMARCK ND
900 AM CDT THU APR 17 2014

NOTE: "FAIR" INDICATES FEW OR NO CLOUDS BELOW 12,000 FEET WITH NO
SIGNIFICANT WEATHER AND/OR OBSTRUCTIONS TO VISIBILITY.


NDZ001>003-009>011-017-171500-
NORTHWEST NORTH DAKOTA

CITY           SKY/WX    TMP DP  RH WIND       PRES   REMARKS
WILLISTON      CLOUDY    28  21  75 SE18      30.20F WCI  15
MINOT          CLOUDY    25  12  58 E9        30.30F WCI  15
$$

NDZ018>021-031>035-040>046-171500-
SOUTHWEST NORTH DAKOTA

CITY           SKY/WX    TMP DP  RH WIND       PRES   REMARKS
BISMARCK       CLOUDY    27  15  61 E10       30.32S WCI  17
DICKINSON      CLOUDY    29  20  69 SE16      30.17F WCI  17
GARRISON         N/A     25  15  66 SE10      30.28F WCI  15
HETTINGER ARPT LGT SNOW  27  24  89 SE13      30.20S FOG     WCI  16
$$

NDZ004>008-012>016-024-026-027-054-171500-
NORTHEAST NORTH DAKOTA

CITY           SKY/WX    TMP DP  RH WIND       PRES   REMARKS
GRAND FORKS    SUNNY     27  19  72 N8        30.37R WCI  19
DEVILS LAKE    SUNNY     23  10  58 CALM      30.34S
$$

NDZ022-023-025-028>030-036>039-047>053-171500-
SOUTHEAST NORTH DAKOTA

CITY           SKY/WX    TMP DP  RH WIND       PRES   REMARKS
FARGO          SUNNY     30  18  60 N8        30.35R
JAMESTOWN      SUNNY     26  18  71 VRB3      30.33R
$$




USA.gov is the U.S. government's official web portal to all federal, state and local government web resources and services.